timestamp,surface_pressure_avg,surface_temp_avg,battery_voltage,lat,long
2022-09-05 00:09:01+00:00,226.1113,21.11,11.7,47.84626,-54.09684
2022-09-05 00:19:01+00:00,228.2331,21.18,11.7,47.84626,-54.09684
2022-09-05 00:29:01+00:00,224.3814,21.2,11.7,47.84626,-54.09684
2022-09-05 00:39:01+00:00,220.6982,21.2,11.7,47.84626,-54.09684
2022-09-05 00:49:01+00:00,222.0663,21.2,11.7,47.84626,-54.09684
2022-09-05 00:59:01+00:00,223.2513,21.26,11.7,47.84626,-54.09684
2022-09-05 01:09:01+00:00,220.6948,21.28,11.7,47.84626,-54.09684
2022-09-05 01:19:01+00:00,220.618,21.28,11.7,47.84626,-54.09684
2022-09-05 01:29:01+00:00,223.0181,21.27,11.7,47.84626,-54.09684
2022-09-05 01:39:01+00:00,224.4265,21.27,11.7,47.84626,-54.09684
2022-09-05 01:49:01+00:00,224.6831,21.25,11.7,47.84626,-54.09684
2022-09-05 01:59:01+00:00,226.2914,21.25,11.7,47.84626,-54.09684
2022-09-05 02:09:01+00:00,228.7714,21.25,11.7,47.84626,-54.09684
2022-09-05 02:19:01+00:00,231.0047,21.25,11.61,47.84626,-54.09684
2022-09-05 02:29:01+00:00,231.9814,21.25,11.61,47.84626,-54.09684
2022-09-05 02:39:01+00:00,235.2147,21.24,11.61,47.84626,-54.09684
2022-09-05 02:49:01+00:00,239.4581,21.2,11.61,47.84626,-54.09684
2022-09-05 02:59:01+00:00,242.1348,21.2,11.61,47.84626,-54.09684
2022-09-05 03:09:01+00:00,243.9131,21.2,11.61,47.84626,-54.09684
2022-09-05 03:19:00+00:00,249.1198,21.2,11.61,47.84626,-54.09684
2022-09-05 03:29:00+00:00,254.1931,21.2,11.61,47.84626,-54.09684
2022-09-05 03:39:00+00:00,258.0481,21.19,11.61,47.84626,-54.09684
2022-09-05 03:49:00+00:00,261.0631,21.2,11.61,47.84626,-54.09684
2022-09-05 03:59:00+00:00,265.2764,21.2,11.61,47.84626,-54.09684
2022-09-05 04:09:00+00:00,269.4798,21.18,11.61,47.84626,-54.09684
2022-09-05 04:19:01+00:00,274.6431,21.16,11.61,47.84626,-54.09684
2022-09-05 04:29:01+00:00,278.7331,21.19,11.61,47.84626,-54.09684
2022-09-05 04:39:01+00:00,282.473,21.19,11.61,47.84626,-54.09684
2022-09-05 04:49:01+00:00,284.0997,21.19,11.61,47.84626,-54.09684
2022-09-05 04:59:01+00:00,287.1697,21.19,11.61,47.84626,-54.09684
2022-09-05 05:09:01+00:00,291.5014,21.16,11.61,47.84626,-54.09684
2022-09-05 05:19:01+00:00,295.6863,21.18,11.61,47.84626,-54.09684
2022-09-05 05:29:01+00:00,297.1096,21.17,11.61,47.84626,-54.09684
2022-09-05 05:39:01+00:00,302.7563,21.18,11.61,47.84626,-54.09684
2022-09-05 05:49:01+00:00,309.0798,21.18,11.61,47.84626,-54.09684
2022-09-05 05:59:01+00:00,310.1963,21.19,11.61,47.84626,-54.09684
2022-09-05 06:09:01+00:00,307.4916,21.19,11.61,47.84626,-54.09684
2022-09-05 06:19:01+00:00,310.7764,21.2,11.61,47.84626,-54.09684
2022-09-05 06:29:01+00:00,313.2813,21.2,11.61,47.84626,-54.09684
2022-09-05 06:39:01+00:00,310.098,21.2,11.61,47.84626,-54.09684
2022-09-05 06:49:01+00:00,310.0729,21.2,11.61,47.84626,-54.09684
2022-09-05 06:59:01+00:00,311.6464,21.2,11.61,47.84626,-54.09684
2022-09-05 07:09:01+00:00,309.9062,21.2,11.61,47.84626,-54.09684
2022-09-05 07:19:00+00:00,305.5164,21.2,11.61,47.84626,-54.09684
2022-09-05 07:29:00+00:00,305.3196,21.2,11.61,47.84626,-54.09684
2022-09-05 07:39:00+00:00,305.9047,21.2,11.61,47.84626,-54.09684
2022-09-05 07:49:00+00:00,300.0814,21.19,11.61,47.84626,-54.09684
2022-09-05 07:59:00+00:00,294.5464,21.19,11.61,47.84626,-54.09684
2022-09-05 08:09:00+00:00,292.5314,21.18,11.61,47.84626,-54.09684
2022-09-05 08:19:00+00:00,288.1697,21.16,11.61,47.84626,-54.09684
2022-09-05 08:29:00+00:00,280.0731,21.11,11.61,47.84626,-54.09684
2022-09-05 08:39:00+00:00,275.5696,21.1,11.61,47.84626,-54.09684
2022-09-05 08:49:00+00:00,270.2897,21.1,11.61,47.84626,-54.09684
2022-09-05 08:59:00+00:00,261.2364,21.11,11.61,47.84626,-54.09684
2022-09-05 09:09:00+00:00,254.4464,21.17,11.61,47.84626,-54.09684
2022-09-05 09:19:00+00:00,253.0981,21.2,11.61,47.84626,-54.09684
2022-09-05 09:29:00+00:00,247.5614,21.25,11.61,47.84626,-54.09684
2022-09-05 09:39:00+00:00,239.2247,21.33,11.61,47.84626,-54.09684
2022-09-05 09:49:00+00:00,235.208,21.39,11.61,47.84626,-54.09684
2022-09-05 09:59:00+00:00,234.4115,21.46,11.61,47.84626,-54.09684
2022-09-05 10:09:00+00:00,227.9398,21.5,11.61,47.84626,-54.09684
2022-09-05 10:19:00+00:00,223.3181,21.54,11.61,47.84626,-54.09684
2022-09-05 10:29:00+00:00,223.7997,21.58,11.61,47.84626,-54.09684
2022-09-05 10:39:00+00:00,221.4498,21.6,11.61,47.84626,-54.09684
2022-09-05 10:49:00+00:00,217.7831,21.6,11.61,47.84626,-54.09684
2022-09-05 10:59:00+00:00,218.5447,21.6,11.61,47.84626,-54.09684
2022-09-05 11:09:00+00:00,219.8648,21.6,11.61,47.84626,-54.09684
2022-09-05 11:19:00+00:00,218.0448,21.6,11.61,47.84626,-54.09684
2022-09-05 11:29:00+00:00,217.4597,21.6,11.61,47.84626,-54.09684
2022-09-05 11:39:00+00:00,222.0347,21.62,11.61,47.84626,-54.09684
2022-09-05 11:49:00+00:00,222.9648,21.62,11.61,47.84626,-54.09684
2022-09-05 11:59:00+00:00,220.6214,21.62,11.61,47.84626,-54.09684
2022-09-05 12:09:00+00:00,222.7347,21.64,11.61,47.84626,-54.09684
2022-09-05 12:19:01+00:00,228.2781,21.66,11.61,47.84626,-54.09684
2022-09-05 12:29:01+00:00,229.7581,21.66,11.61,47.84626,-54.09684
2022-09-05 12:39:01+00:00,229.2063,21.62,11.61,47.84626,-54.09684
2022-09-05 12:49:01+00:00,230.7531,21.6,11.61,47.84626,-54.09684
2022-09-05 12:59:01+00:00,231.5231,21.59,11.61,47.84626,-54.09684
2022-09-05 13:09:01+00:00,230.4816,21.59,11.61,47.84626,-54.09684
2022-09-05 13:19:00+00:00,230.8514,21.58,11.7,47.84626,-54.09684
2022-09-05 13:29:00+00:00,228.9481,21.53,11.7,47.84626,-54.09684
2022-09-05 13:39:00+00:00,225.1665,21.39,11.7,47.84626,-54.09684
2022-09-05 13:49:00+00:00,225.9231,21.09,11.7,47.84626,-54.09684
2022-09-05 13:59:00+00:00,229.8431,21.1,11.7,47.84626,-54.09684
2022-09-05 14:09:00+00:00,229.9514,21.19,11.7,47.84626,-54.09684
2022-09-05 14:19:00+00:00,230.8264,21.1,11.86,47.84626,-54.09684
2022-09-05 14:29:00+00:00,234.2831,21.09,11.86,47.84626,-54.09684
2022-09-05 14:39:00+00:00,238.7164,21.11,11.86,47.84626,-54.09684
2022-09-05 14:49:00+00:00,243.2298,21.1,11.86,47.84626,-54.09684
2022-09-05 14:59:00+00:00,247.4698,20.9,11.86,47.84626,-54.09684
2022-09-05 15:09:00+00:00,251.5414,20.78,11.86,47.84626,-54.09684
2022-09-05 15:19:00+00:00,254.5348,20.8,11.93,47.84626,-54.09684
2022-09-05 15:29:00+00:00,260.6448,20.7,11.93,47.84626,-54.09684
2022-09-05 15:39:00+00:00,269.4447,20.61,11.93,47.84626,-54.09684
2022-09-05 15:49:00+00:00,275.8231,20.7,11.93,47.84626,-54.09684
2022-09-05 15:59:00+00:00,277.843,20.67,11.93,47.84626,-54.09684
2022-09-05 16:09:00+00:00,283.2464,20.64,11.93,47.84626,-54.09684
2022-09-05 16:19:00+00:00,291.7314,20.6,11.86,47.84626,-54.09684
2022-09-05 16:29:00+00:00,297.6396,20.5,11.86,47.84626,-54.09684
2022-09-05 16:39:00+00:00,302.0797,20.4,11.86,47.84626,-54.09684
2022-09-05 16:49:00+00:00,306.1331,20.45,11.86,47.84626,-54.09684
2022-09-05 16:59:00+00:00,308.9314,20.4,11.86,47.84626,-54.09684
2022-09-05 17:09:00+00:00,311.3812,20.3,11.86,47.84626,-54.09684
2022-09-05 17:19:00+00:00,316.7229,20.2,11.86,47.84626,-54.09684
2022-09-05 17:29:00+00:00,320.9165,20.2,11.86,47.84626,-54.09684
2022-09-05 17:39:00+00:00,321.9412,20.3,11.86,47.84626,-54.09684
2022-09-05 17:49:00+00:00,325.8963,20.28,11.86,47.84626,-54.09684
2022-09-05 17:59:00+00:00,333.1396,20.2,11.86,47.84626,-54.09684
2022-09-05 18:09:00+00:00,336.1096,20.2,11.86,47.84626,-54.09684
2022-09-05 18:19:00+00:00,338.6647,20.19,11.77,47.84626,-54.09684
2022-09-05 18:29:00+00:00,342.5881,20.18,11.77,47.84626,-54.09684
2022-09-05 18:39:00+00:00,345.1895,20.19,11.77,47.84626,-54.09684
2022-09-05 18:49:00+00:00,344.4882,20.2,11.77,47.84626,-54.09684
2022-09-05 18:59:00+00:00,345.5895,20.2,11.77,47.84626,-54.09684
2022-09-05 19:09:00+00:00,347.5314,20.2,11.77,47.84626,-54.09684
2022-09-05 19:19:00+00:00,346.1813,20.2,11.77,47.84626,-54.09684
2022-09-05 19:29:00+00:00,342.9546,20.2,11.77,47.84626,-54.09684
2022-09-05 19:39:00+00:00,342.7529,20.19,11.77,47.84626,-54.09684
2022-09-05 19:49:00+00:00,341.7297,20.15,11.77,47.84626,-54.09684
2022-09-05 19:59:00+00:00,337.3513,20.19,11.77,47.84626,-54.09684
2022-09-05 20:09:00+00:00,334.9781,20.2,11.77,47.84626,-54.09684
2022-09-05 20:19:01+00:00,334.2480000000001,20.2,11.7,47.84626,-54.09684
2022-09-05 20:29:01+00:00,330.3563,20.26,11.7,47.84626,-54.09684
2022-09-05 20:39:01+00:00,324.4896,20.28,11.7,47.84626,-54.09684
2022-09-05 20:49:01+00:00,321.5047,20.29,11.7,47.84626,-54.09684
2022-09-05 20:59:01+00:00,316.5413,20.36,11.7,47.84626,-54.09684
2022-09-05 21:09:01+00:00,308.8196,20.5,11.7,47.84626,-54.09684
2022-09-05 21:19:00+00:00,304.2814,20.6,11.7,47.84626,-54.09684
2022-09-05 21:29:00+00:00,301.3896,20.77,11.7,47.84626,-54.09684
2022-09-05 21:39:00+00:00,296.243,21.0,11.7,47.84626,-54.09684
2022-09-05 21:49:00+00:00,289.2214,21.18,11.7,47.84626,-54.09684
2022-09-05 21:59:00+00:00,284.2747,21.3,11.7,47.84626,-54.09684
2022-09-05 22:09:00+00:00,278.618,21.65,11.7,47.84626,-54.09684
2022-09-05 22:19:00+00:00,272.3947,21.8,11.7,47.84626,-54.09684
2022-09-05 22:29:00+00:00,266.6547,22.0,11.7,47.84626,-54.09684
2022-09-05 22:39:00+00:00,261.5731,22.08,11.7,47.84626,-54.09684
2022-09-05 22:49:00+00:00,256.0347,22.08,11.7,47.84626,-54.09684
2022-09-05 22:59:00+00:00,252.0197,22.06,11.7,47.84626,-54.09684
2022-09-05 23:09:00+00:00,250.0431,22.0,11.7,47.84626,-54.09684
2022-09-05 23:19:01+00:00,246.7264,22.02,11.7,47.84626,-54.09684
2022-09-05 23:29:01+00:00,240.9214,22.0,11.7,47.84626,-54.09684
2022-09-05 23:39:01+00:00,237.783,22.0,11.7,47.84626,-54.09684
2022-09-05 23:49:01+00:00,239.0131,22.0,11.7,47.84626,-54.09684
2022-09-05 23:59:01+00:00,235.9014,22.06,11.7,47.84626,-54.09684
